• In Austria
  • List of Countries
  • For 7 days
  • Water Temperature
  • Satellite Maps
  • Weather Map
  • News
  • Weather Widgets
  • user-avatar
    Login

    Hourly Weather Vakfıkebir

    Today, 19 November, Sunday

    Time Temperature Precipitation Wind Pressure Humidity
    00:00 +18°C° 0 mm 3 mps 755 mmHg 46%
    01:00 +18°C° 0 mm 3 mps 755 mmHg 46%
    02:00 +17°C° 0 mm 3 mps 754 mmHg 46%
    03:00 +18°C° 0 mm 4 mps 754 mmHg 43%
    04:00 +18°C° 0 mm 4 mps 754 mmHg 44%
    05:00 +18°C° 0 mm 3 mps 754 mmHg 45%
    06:00 +17°C° 0 mm 3 mps 754 mmHg 46%
    07:00 +18°C° 0 mm 3 mps 754 mmHg 45%
    08:00 +18°C° 0 mm 3 mps 754 mmHg 44%
    09:00 +19°C° 0 mm 3 mps 753 mmHg 44%
    10:00 +20°C° 0 mm 3 mps 753 mmHg 43%
    11:00 +21°C° 0 mm 3 mps 753 mmHg 43%
    12:00 +21°C° 0 mm 2 mps 753 mmHg 42%
    13:00 +21°C° 0.1 mm 3 mps 753 mmHg 46%
    14:00 +20°C° 0.1 mm 3 mps 753 mmHg 50%
    15:00 +20°C° 0.1 mm 4 mps 752 mmHg 54%
    16:00 +19°C° 0.1 mm 4 mps 752 mmHg 57%
    17:00 +18°C° 0.1 mm 4 mps 752 mmHg 60%
    18:00 +17°C° 0.1 mm 5 mps 752 mmHg 62%
    19:00 +16°C° 0 mm 5 mps 752 mmHg 62%
    20:00 +16°C° 0 mm 5 mps 752 mmHg 62%
    21:00 +17°C° 0 mm 4 mps 752 mmHg 62%
    22:00 +17°C° 0.1 mm 4 mps 753 mmHg 63%
    23:00 +17°C° 0.1 mm 4 mps 753 mmHg 63%

    Tomorrow, 20 November, Monday

    Time Temperature Precipitation Wind Pressure Humidity
    00:00 +15°C° 0.1 mm 4 mps 753 mmHg 63%
    01:00 +15°C° 0 mm 4 mps 753 mmHg 64%
    02:00 +15°C° 0 mm 4 mps 753 mmHg 64%
    03:00 +16°C° 0 mm 3 mps 753 mmHg 65%
    04:00 +15°C° 0 mm 4 mps 753 mmHg 65%
    05:00 +15°C° 0 mm 4 mps 753 mmHg 65%
    06:00 +15°C° 0 mm 4 mps 753 mmHg 66%
    07:00 +15°C° 0 mm 4 mps 753 mmHg 64%
    08:00 +17°C° 0 mm 4 mps 753 mmHg 63%
    09:00 +17°C° 0 mm 4 mps 753 mmHg 62%
    10:00 +18°C° 0 mm 4 mps 752 mmHg 59%
    11:00 +19°C° 0 mm 3 mps 752 mmHg 56%
    12:00 +20°C° 0 mm 3 mps 751 mmHg 54%
    13:00 +20°C° 0 mm 3 mps 751 mmHg 54%
    14:00 +20°C° 0 mm 3 mps 751 mmHg 55%
    15:00 +20°C° 0 mm 3 mps 750 mmHg 55%
    16:00 +19°C° 0 mm 3 mps 750 mmHg 58%
    17:00 +18°C° 0 mm 3 mps 750 mmHg 61%
    18:00 +17°C° 0 mm 3 mps 750 mmHg 64%
    19:00 +17°C° 0 mm 3 mps 749 mmHg 64%
    20:00 +17°C° 0 mm 3 mps 749 mmHg 64%
    21:00 +17°C° 0 mm 3 mps 749 mmHg 64%
    22:00 +17°C° 0 mm 3 mps 749 mmHg 65%
    23:00 +17°C° 0 mm 3 mps 748 mmHg 66%

    Day after tomorrow, 21 November, Tuesday

    Time Temperature Precipitation Wind Pressure Humidity
    00:00 +17°C° 0 mm 3 mps 748 mmHg 66%
    01:00 +16°C° 0 mm 3 mps 748 mmHg 68%
    02:00 +16°C° 0 mm 3 mps 748 mmHg 71%
    03:00 +16°C° 0 mm 3 mps 747 mmHg 73%
    04:00 +16°C° 0 mm 2 mps 747 mmHg 73%
    05:00 +16°C° 0 mm 2 mps 747 mmHg 73%
    06:00 +16°C° 0 mm 2 mps 746 mmHg 74%
    07:00 +16°C° 0.1 mm 2 mps 747 mmHg 72%
    08:00 +16°C° 0.1 mm 2 mps 747 mmHg 71%
    09:00 +17°C° 0.1 mm 3 mps 747 mmHg 70%
    10:00 +15°C° 0.3 mm 4 mps 746 mmHg 75%
    11:00 +14°C° 0.3 mm 5 mps 746 mmHg 81%
    12:00 +14°C° 0.3 mm 7 mps 746 mmHg 86%
    13:00 +12°C° 2.7 mm 7 mps 746 mmHg 87%
    14:00 +11°C° 2.7 mm 7 mps 746 mmHg 89%
    15:00 +10°C° 2.7 mm 7 mps 747 mmHg 90%
    16:00 +10°C° 3.1 mm 8 mps 747 mmHg 91%
    17:00 +8°C° 3.1 mm 9 mps 748 mmHg 92%
    18:00 +8°C° 3.1 mm 10 mps 749 mmHg 92%
    19:00 +7°C° 1.9 mm 9 mps 750 mmHg 91%
    20:00 +7°C° 1.9 mm 8 mps 751 mmHg 90%
    21:00 +6°C° 1.9 mm 7 mps 752 mmHg 89%
    22:00 +7°C° 0.7 mm 6 mps 752 mmHg 88%
    23:00 +7°C° 0.7 mm 6 mps 753 mmHg 87%

    22 November, Wednesday

    Time Temperature Precipitation Wind Pressure Humidity
    00:00 +7°C° 0.7 mm 5 mps 754 mmHg 86%
    01:00 +7°C° 0.4 mm 5 mps 754 mmHg 87%
    02:00 +6°C° 0.4 mm 4 mps 755 mmHg 87%
    03:00 +6°C° 0.4 mm 4 mps 755 mmHg 88%
    04:00 +6°C° 0.5 mm 4 mps 755 mmHg 89%
    05:00 +6°C° 0.5 mm 4 mps 755 mmHg 89%
    06:00 +6°C° 0.5 mm 4 mps 756 mmHg 90%
    07:00 +6°C° 0.4 mm 4 mps 756 mmHg 89%
    08:00 +7°C° 0.4 mm 3 mps 757 mmHg 89%
    09:00 +8°C° 0.4 mm 3 mps 757 mmHg 88%
    10:00 +8°C° 0.2 mm 3 mps 757 mmHg 85%
    11:00 +9°C° 0.2 mm 3 mps 757 mmHg 82%
    12:00 +9°C° 0.2 mm 3 mps 757 mmHg 79%
    13:00 +10°C° 0.1 mm 3 mps 757 mmHg 77%
    14:00 +10°C° 0.1 mm 2 mps 757 mmHg 74%
    15:00 +10°C° 0.1 mm 2 mps 757 mmHg 72%
    16:00 +9°C° 0 mm 2 mps 757 mmHg 74%
    17:00 +8°C° 0 mm 2 mps 757 mmHg 76%
    18:00 +7°C° 0 mm 2 mps 758 mmHg 78%
    19:00 +7°C° 0 mm 3 mps 758 mmHg 76%
    20:00 +6°C° 0 mm 4 mps 758 mmHg 75%
    21:00 +5°C° 0 mm 4 mps 758 mmHg 73%
    22:00 +6°C° 0.3 mm 4 mps 758 mmHg 72%
    23:00 +6°C° 0.3 mm 4 mps 758 mmHg 72%

    23 November, Thursday

    Time Temperature Precipitation Wind Pressure Humidity
    00:00 +6°C° 0.3 mm 4 mps 758 mmHg 71%
    01:00 +6°C° 1.1 mm 5 mps 758 mmHg 76%
    02:00 +6°C° 1.1 mm 5 mps 758 mmHg 80%
    03:00 +5°C° 1.1 mm 6 mps 758 mmHg 85%
    04:00 +5°C° 1.8 mm 6 mps 758 mmHg 86%
    05:00 +5°C° 1.8 mm 7 mps 758 mmHg 87%
    06:00 +5°C° 1.8 mm 7 mps 758 mmHg 87%
    07:00 +6°C° 0.6 mm 7 mps 759 mmHg 86%
    08:00 +6°C° 0.6 mm 7 mps 760 mmHg 85%
    09:00 +6°C° 0.6 mm 7 mps 760 mmHg 83%
    10:00 +7°C° 0.4 mm 6 mps 760 mmHg 82%
    11:00 +7°C° 0.4 mm 6 mps 760 mmHg 80%
    12:00 +7°C° 0.4 mm 6 mps 761 mmHg 78%
    13:00 +7°C° 0.5 mm 6 mps 761 mmHg 79%
    14:00 +7°C° 0.5 mm 6 mps 761 mmHg 80%
    15:00 +7°C° 0.5 mm 5 mps 761 mmHg 80%
    16:00 +7°C° 0.4 mm 5 mps 761 mmHg 81%
    17:00 +6°C° 0.4 mm 5 mps 762 mmHg 82%
    18:00 +6°C° 0.4 mm 5 mps 763 mmHg 84%
    19:00 +5°C° 0.3 mm 4 mps 763 mmHg 83%
    20:00 +5°C° 0.3 mm 4 mps 763 mmHg 82%
    21:00 +4°C° 0.3 mm 4 mps 764 mmHg 81%
    22:00 +4°C° 0.2 mm 4 mps 764 mmHg 80%
    23:00 +3°C° 0.2 mm 4 mps 765 mmHg 78%

    24 November, Friday

    Time Temperature Precipitation Wind Pressure Humidity
    00:00 +3°C° 0.2 mm 4 mps 765 mmHg 77%
    01:00 +1°C° 0.2 mm 4 mps 765 mmHg 75%
    02:00 +1°C° 0.2 mm 4 mps 765 mmHg 74%
    03:00 +1°C° 0.2 mm 4 mps 765 mmHg 73%
    04:00 +1°C° 0.1 mm 4 mps 766 mmHg 71%
    05:00 +1°C° 0.1 mm 4 mps 766 mmHg 69%
    06:00 +2°C° 0.1 mm 3 mps 766 mmHg 68%
    07:00 +3°C° 0.1 mm 3 mps 766 mmHg 67%
    08:00 +3°C° 0.1 mm 3 mps 766 mmHg 66%
    09:00 +4°C° 0.1 mm 3 mps 767 mmHg 66%
    10:00 +7°C° 0 mm 3 mps 766 mmHg 65%
    11:00 +8°C° 0 mm 2 mps 766 mmHg 64%
    12:00 +9°C° 0 mm 2 mps 766 mmHg 64%
    13:00 +9°C° 0 mm 2 mps 765 mmHg 66%
    14:00 +9°C° 0 mm 2 mps 765 mmHg 69%
    15:00 +9°C° 0 mm 2 mps 765 mmHg 72%
    16:00 +8°C° 0 mm 2 mps 765 mmHg 74%
    17:00 +7°C° 0 mm 2 mps 766 mmHg 77%
    18:00 +6°C° 0 mm 2 mps 766 mmHg 79%
    19:00 +5°C° 0 mm 2 mps 766 mmHg 77%
    20:00 +5°C° 0 mm 2 mps 767 mmHg 75%
    21:00 +4°C° 0 mm 2 mps 767 mmHg 74%
    22:00 +4°C° 0 mm 2 mps 767 mmHg 71%
    23:00 +4°C° 0 mm 2 mps 767 mmHg 68%
    Show more